Wind_Speed
21 21 20 19 20 19 20 21 22 22 21 18 16 17 16 13 9 5 7 10 14 11 1 3 2 2 5 8 9 11 9 7 10 13 14 11 6 4 2 2 2 1 2 1 3 2 1 3 3 1 1 3 4 5 9 14 12 6 1 1 1 2 3 3 2 4 5 7 7 5 5 5 5 2 2 4 3 4 5 4 3 1 1 0 2 0 4
21 20 19 19 18 18 19 19 19 20 21 20 19 18 17 18 15 6 5 7 12 8 1 1 3 4 6 6 9 12 11 9 11 10 9 9 4 2 3 2 3 2 1 2 0 1 0 3 3 2 1 1 3 6 12 12 6 2 2 2 1 1 1 3 3 4 5 7 7 6 6 4 2 3 2 4 5 5 4 2 3 2 2 3 4 2 5
21 19 18 18 17 17 17 17 17 17 18 17 18 18 16 14 11 6 6 4 8 11 7 5 3 3 5 6 7 8 9 11 13 12 12 14 7 3 4 3 3 3 1 0 1 3 2 1 2 2 1 1 1 5 13 12 6 6 9 8 5 3 2 4 5 3 1 1 2 2 3 3 2 3 1 5 7 7 4 2 4 1 3 3 5 4 5
20 19 18 17 17 17 16 16 15 15 16 16 16 15 12 7 3 6 12 11 4 7 10 6 3 3 4 6 5 5 5 8 14 13 12 15 11 5 3 3 1 1 1 0 2 2 2 2 2 2 3 2 2 10 16 14 11 13 14 11 5 3 2 3 6 6 5 5 6 5 2 2 5 5 1 5 6 6 6 4 2 3 2 1 2 5 3
19 18 17 16 16 16 16 16 14 13 15 15 14 12 8 3 1 4 7 8 8 10 12 11 8 6 6 4 5 7 6 5 9 9 9 13 12 6 3 4 2 2 3 1 2 4 1 2 2 2 4 2 3 9 14 13 14 15 12 10 6 4 2 1 5 6 7 7 7 6 3 3 4 5 3 5 6 6 6 3 4 4 5 1 5 4 6
18 17 16 16 16 15 15 15 12 12 13 13 13 10 4 2 4 6 6 4 3 5 9 13 12 10 9 5 5 9 9 6 5 7 11 13 9 4 2 4 4 5 6 3 1 3 2 0 2 1 1 2 3 4 3 6 13 12 8 7 6 5 1 4 4 4 6 5 6 6 3 3 3 2 3 4 6 7 6 4 5 6 5 4 6 5 6
17 16 15 15 15 14 14 14 12 11 11 11 10 7 4 4 5 7 7 5 5 7 12 15 12 8 7 5 5 6 7 7 6 6 7 9 5 5 4 5 5 6 5 5 2 2 1 2 2 1 1 2 4 3 1 3 7 7 5 3 3 5 2 5 3 1 4 4 5 4 4 4 5 2 2 3 5 8 8 6 6 7 6 5 6 6 5
16 16 15 14 14 13 13 13 11 10 9 8 6 5 5 5 4 8 10 7 7 11 13 12 8 7 6 4 4 5 4 6 7 6 5 5 4 2 1 3 5 6 3 4 3 5 7 6 4 5 3 1 1 4 2 3 3 3 3 1 1 3 2 3 2 2 5 6 3 4 5 3 3 4 4 6 6 5 5 4 5 7 6 5 7 6 3
16 15 14 14 13 13 13 12 11 10 8 6 3 3 4 4 3 7 8 5 5 7 9 8 5 4 4 3 5 6 6 8 11 10 7 4 2 0 1 5 6 6 3 4 0 7 5 6 6 8 8 5 5 5 5 7 5 3 3 2 2 3 1 1 4 4 4 5 5 5 3 5 5 4 3 6 7 4 3 2 3 5 7 6 5 3 4
15 15 14 13 13 12 12 12 11 10 8 6 4 3 5 5 5 4 3 3 4 4 6 7 4 3 4 7 9 9 9 11 11 8 8 9 10 4 4 6 6 6 5 3 6 14 10 6 10 8 10 13 11 9 10 13 10 4 3 2 3 4 3 2 4 3 4 5 3 3 3 6 4 4 3 5 7 7 5 3 3 3 6 6 4 3 4
15 15 14 13 13 12 12 11 11 10 9 7 3 2 4 5 3 3 4 2 4 5 5 3 3 5 9 14 14 10 11 13 11 5 5 9 12 10 9 8 6 2 5 9 13 14 6 4 14 16 8 14 17 16 14 13 11 9 7 4 2 5 5 3 4 3 4 5 3 4 5 2 3 6 4 6 8 10 8 5 3 2 3 4 3 3 4
14 14 14 13 13 12 11 10 10 10 9 7 4 2 3 3 3 4 5 1 4 5 3 3 6 8 13 16 14 11 12 13 12 10 7 7 9 11 13 9 4 2 9 15 18 14 6 2 9 13 8 5 11 10 7 5 5 9 12 8 4 5 5 3 3 4 2 2 5 6 1 5 6 4 3 9 12 14 12 6 4 3 5 7 6 4 5
14 14 14 13 13 12 12 10 9 9 8 7 4 1 1 1 2 3 4 3 4 3 3 8 12 13 16 17 14 14 17 18 18 18 14 11 11 14 16 13 9 11 14 16 19 14 6 3 5 6 6 5 3 3 4 4 2 5 8 7 6 6 5 3 2 2 1 2 4 2 4 5 5 3 6 11 11 11 11 7 5 2 4 6 6 5 5
13 14 14 13 13 12 12 11 9 9 8 6 4 2 4 4 2 2 4 2 3 4 6 7 9 11 15 17 15 13 16 19 21 19 14 12 11 13 18 20 19 17 13 12 15 12 3 2 5 4 5 6 5 3 2 1 4 7 6 4 6 7 5 3 2 1 2 3 2 2 3 4 4 2 3 4 4 6 6 5 0 3 4 7 7 5 5
13 14 14 14 13 12 12 11 9 9 7 6 5 4 7 6 4 2 1 2 3 7 7 5 4 11 13 15 13 10 8 10 12 13 13 12 12 13 18 21 20 16 12 7 7 5 3 3 4 2 3 3 1 2 3 2 1 5 8 6 4 6 5 5 3 1 2 4 2 2 2 2 4 5 6 5 5 11 9 6 1 5 7 11 9 6 7
13 14 15 15 15 13 12 12 10 9 8 6 5 5 8 8 6 5 5 5 2 3 5 4 8 14 12 12 12 8 5 5 6 7 8 9 13 17 20 19 16 17 15 7 3 3 3 2 3 2 1 1 2 3 2 1 2 2 6 9 9 7 4 5 5 1 2 5 3 1 2 3 6 6 7 5 9 15 11 6 2 5 10 14 11 9 11
14 15 15 15 15 14 13 12 10 9 9 7 5 5 8 9 8 7 7 6 5 8 13 11 12 12 6 7 10 8 7 7 5 4 4 6 10 17 22 21 16 17 18 8 1 4 4 2 2 3 2 3 1 2 3 0 0 3 3 7 9 7 4 4 5 2 1 4 3 2 3 2 5 6 4 3 6 10 9 4 5 6 13 17 13 12 14
14 14 15 15 15 14 13 12 10 9 9 7 5 4 7 10 10 8 7 6 6 10 11 7 6 7 4 6 9 8 8 9 5 4 6 6 6 14 22 20 12 13 15 8 0 2 4 2 1 3 2 4 0 2 3 1 2 2 1 4 4 4 3 3 4 3 3 4 2 3 3 3 4 4 4 3 4 5 4 2 6 9 15 16 13 13 14
14 14 14 14 14 13 12 12 10 9 9 8 6 4 7 11 10 8 8 9 9 10 11 8 7 11 11 11 13 11 9 8 4 4 4 3 10 20 19 10 7 10 11 7 1 1 3 1 2 3 1 3 1 1 2 2 3 3 3 4 2 2 1 1 2 3 3 3 2 1 3 3 4 2 5 6 4 1 3 4 5 11 15 14 12 11 11
14 14 13 13 13 12 12 11 10 10 9 8 7 4 7 11 10 7 8 9 11 18 22 19 18 18 16 15 15 13 12 9 4 3 1 4 14 21 11 2 7 12 7 5 4 1 2 1 2 1 2 3 1 1 2 3 3 3 4 3 2 3 2 0 1 3 2 2 3 2 2 4 5 2 3 5 2 5 7 7 8 11 12 12 11 11 10
13 12 12 12 12 12 12 11 9 9 9 9 8 5 8 13 12 10 9 11 12 16 16 10 11 15 16 16 15 13 14 14 11 9 10 12 13 11 2 2 8 7 3 4 3 2 2 1 2 1 0 1 1 0 2 2 3 2 4 4 2 2 3 2 2 2 3 3 1 2 4 6 7 4 2 3 4 8 12 12 11 10 11 12 13 11 10
12 12 11 11 11 11 11 10 9 9 9 10 8 6 11 13 11 9 11 13 15 18 17 14 15 18 19 19 18 16 17 19 18 17 18 17 14 8 6 7 8 5 3 5 1 1 2 2 0 2 2 1 2 2 2 1 1 3 1 3 1 4 4 5 3 3 3 3 4 5 6 9 9 8 8 8 8 9 11 11 12 13 13 13 13 12 11
11 11 11 11 11 10 10 10 9 8 9 10 9 8 10 12 9 8 11 13 15 20 24 24 24 23 21 20 17 15 15 16 17 18 20 18 14 11 10 9 7 5 4 6 3 1 1 1 1 1 1 1 1 3 2 0 1 2 2 0 2 4 6 6 3 2 2 1 2 6 9 11 12 11 10 10 10 11 12 11 12 14 14 13 12 12 12
9 10 11 10 9 9 10 10 9 8 9 10 10 9 9 10 10 9 10 10 11 15 17 17 17 15 12 11 11 10 10 11 12 14 15 16 15 11 9 8 5 4 3 5 8 6 3 2 2 1 0 2 1 1 2 2 2 1 1 2 3 1 4 4 3 2 1 2 1 7 13 14 15 14 12 12 13 13 12 11 12 13 13 12 10 10 11
8 9 10 8 8 9 10 9 8 7 9 10 10 9 7 9 10 8 7 6 7 8 7 10 14 12 9 12 13 13 11 12 13 11 11 14 18 18 16 13 9 9 8 6 9 9 4 1 1 1 0 2 2 0 1 1 2 1 1 1 3 1 2 1 2 3 3 1 3 9 13 14 15 17 16 15 15 14 11 10 11 12 12 11 9 9 13
7 8 9 8 8 9 8 6 5 5 8 10 11 10 7 7 9 8 7 5 8 8 6 9 15 15 14 16 16 14 14 16 17 17 16 16 19 21 22 21 17 16 14 9 7 8 4 1 1 1 1 1 2 1 2 2 2 2 1 3 2 3 2 1 2 5 3 2 4 9 9 5 7 14 16 15 15 15 13 12 12 12 12 11 9 9 13
7 7 8 8 7 8 7 5 4 4 6 8 8 8 7 7 8 9 8 3 5 7 4 6 16 22 23 20 15 12 14 16 16 18 18 17 17 20 21 20 18 18 16 11 7 6 3 1 1 1 3 4 4 2 3 4 2 1 2 3 1 3 2 1 4 5 2 2 7 11 6 1 7 13 15 15 15 14 14 14 13 12 12 12 12 12 14
8 8 8 8 8 7 6 6 5 4 4 4 4 5 6 5 6 9 10 6 4 7 7 13 23 28 26 20 12 9 11 13 14 16 15 12 12 18 22 20 17 17 15 10 5 3 3 2 2 2 3 4 5 3 4 3 2 1 3 4 4 4 4 3 5 5 4 10 18 17 7 4 10 15 16 16 15 13 13 13 12 12 12 12 14 16 17
8 8 8 9 8 6 6 6 5 4 3 3 4 4 3 2 4 8 12 10 6 8 13 17 19 17 16 17 14 10 10 11 13 15 14 10 8 13 21 22 20 18 17 13 7 4 4 5 4 5 4 3 2 2 3 2 2 3 5 7 5 4 6 8 9 8 7 12 18 15 6 6 13 16 16 16 14 12 12 12 12 12 13 13 13 15 18
8 8 8 8 7 6 6 6 6 5 5 5 5 2 2 3 4 8 11 12 9 7 9 10 9 11 18 22 19 12 8 10 14 16 14 11 10 11 14 18 21 21 17 13 9 6 6 6 6 9 12 10 5 1 2 2 2 4 7 9 7 6 10 13 11 9 10 14 14 10 6 9 14 15 15 15 14 13 12 12 13 14 15 15 14 15 18
7 6 7 7 7 6 6 6 5 6 7 6 5 2 2 1 3 8 10 10 10 7 7 8 10 15 20 20 16 13 8 6 11 15 15 13 13 14 14 15 17 19 18 16 12 9 6 5 4 6 11 13 8 2 2 3 4 4 7 11 12 13 15 14 12 12 14 16 14 9 9 14 18 17 15 15 16 15 13 13 14 15 16 16 14 15 18
6 6 7 6 5 5 6 5 6 6 6 7 6 4 3 3 4 7 9 9 8 6 6 7 8 8 9 12 17 14 8 6 6 10 15 16 16 17 18 17 16 16 17 17 13 9 8 9 8 8 11 12 6 1 2 4 4 5 7 10 15 18 18 17 16 16 18 19 17 12 14 19 20 17 16 18 18 16 15 17 17 15 16 16 15 15 18
6 6 6 5 4 4 4 5 6 5 6 7 7 5 4 5 5 5 6 7 7 6 5 5 4 2 6 14 18 10 3 5 7 8 12 16 18 17 19 21 18 15 15 14 10 8 10 12 10 9 14 15 7 1 2 5 6 8 10 11 16 20 20 20 20 20 21 21 17 11 13 20 20 16 16 19 19 17 19 21 18 16 18 19 19 19 19
7 6 5 5 4 4 4 4 5 5 7 9 8 5 6 6 5 3 3 4 4 4 5 4 3 2 6 13 11 6 8 8 8 10 9 11 14 14 16 19 17 13 12 13 11 8 9 11 9 5 8 10 7 3 3 6 8 10 11 12 17 21 21 21 22 23 23 21 15 9 11 17 19 18 19 22 20 19 21 21 19 20 22 23 22 21 20
6 5 5 5 5 5 5 5 6 6 7 7 4 3 7 7 5 3 3 3 3 3 3 4 4 3 4 6 4 5 13 14 6 10 11 10 12 13 13 11 8 7 9 11 10 6 6 8 9 6 3 4 4 3 4 6 9 11 11 13 18 21 21 21 22 22 21 18 13 10 13 18 21 22 24 24 23 23 23 22 21 23 26 26 25 23 21
6 5 5 5 6 7 7 6 5 5 4 4 2 5 7 5 4 4 5 6 6 5 4 3 3 3 2 2 4 8 13 14 9 3 4 5 7 9 8 5 3 6 9 8 5 3 6 10 9 5 2 3 4 5 7 11 14 14 14 16 20 23 21 20 21 21 20 18 15 15 18 21 23 24 25 25 24 25 26 25 24 25 27 28 27 25 23
6 5 5 5 5 5 4 2 1 1 3 3 1 2 2 2 3 4 6 8 10 10 8 4 4 5 4 3 6 8 9 9 10 7 5 3 2 1 2 2 1 3 5 3 3 4 8 10 8 3 3 5 9 11 12 13 15 16 17 18 22 24 22 20 20 21 21 19 17 18 21 23 24 25 26 26 26 26 27 27 27 28 28 28 28 27 25
6 5 4 3 2 1 2 2 1 2 2 1 0 1 2 3 4 4 6 7 7 9 9 7 7 10 8 4 7 10 7 8 9 7 4 5 5 3 2 2 1 1 1 2 5 8 7 5 3 3 4 9 15 18 17 15 14 15 16 18 22 24 22 19 20 22 23 20 20 22 25 26 27 28 28 27 28 28 28 27 28 28 28 28 27 27 26
5 3 2 1 2 2 3 5 2 1 1 1 1 2 3 4 3 2 5 5 4 6 8 8 10 15 12 7 11 18 13 6 6 4 2 3 3 2 2 3 3 2 1 1 3 5 3 1 1 3 4 5 11 17 19 19 17 16 15 16 20 24 23 19 19 23 25 24 25 27 28 28 29 30 30 29 28 27 27 27 28 28 28 28 27 27 27
3 2 1 2 3 4 4 5 2 3 3 2 2 2 3 4 4 3 4 4 3 5 8 8 10 16 18 15 12 13 11 7 5 4 2 1 0 0 0 1 2 1 1 2 1 2 2 1 2 3 3 4 8 15 18 18 19 19 17 16 18 22 22 19 18 21 24 25 25 25 25 25 27 29 29 29 29 28 28 28 28 27 27 28 28 27 26
1 1 2 4 6 6 6 5 2 4 4 2 2 3 2 3 5 4 3 2 2 4 8 8 6 9 16 21 17 12 10 10 9 7 3 2 1 1 2 1 0 1 0 2 2 1 2 0 2 3 4 7 11 14 17 18 20 21 20 19 20 22 23 21 19 20 22 23 24 24 24 24 25 26 27 28 28 27 28 29 28 26 25 26 27 27 26
3 3 4 6 7 7 7 4 2 4 4 2 1 2 2 2 3 3 3 4 3 4 7 9 7 5 8 14 17 14 10 8 8 7 3 1 1 1 1 1 1 0 1 2 0 2 2 1 3 3 6 9 11 14 17 20 22 22 21 21 22 23 24 23 21 19 19 21 23 24 24 24 24 25 27 27 27 27 28 28 27 26 24 24 25 27 27
5 5 6 7 6 5 3 2 4 4 2 1 1 1 2 2 2 2 3 4 3 2 2 4 6 6 5 7 11 11 8 6 5 4 1 2 2 1 1 2 1 1 1 1 1 2 1 3 3 4 8 11 14 15 17 19 20 22 22 21 21 23 24 24 22 19 17 18 21 23 24 25 24 25 26 27 28 28 28 27 26 25 24 23 25 27 27
4 4 4 4 3 2 1 2 4 4 2 1 2 2 2 2 2 2 1 1 2 3 5 8 8 5 3 5 8 7 6 5 3 1 2 1 1 1 1 1 2 1 1 0 0 1 3 4 5 9 13 15 15 14 15 16 19 22 23 22 23 23 23 23 21 19 18 19 22 24 26 26 26 26 27 28 29 29 28 27 26 24 24 24 26 27 27
3 3 1 1 2 2 2 1 2 3 2 1 2 3 3 2 2 1 2 4 5 5 7 9 8 4 2 3 4 5 4 3 3 2 1 0 0 1 1 2 1 0 1 1 1 2 3 3 5 10 16 18 17 15 13 14 16 19 22 24 25 25 24 22 21 20 19 20 23 26 28 28 28 28 28 28 29 29 28 27 26 25 24 25 26 27 28
3 3 2 0 1 2 2 1 0 1 2 3 4 5 4 4 4 4 5 6 8 9 10 10 7 4 2 1 2 2 2 2 2 1 1 1 0 1 1 1 1 1 1 1 3 3 4 4 6 10 14 16 16 15 14 13 14 17 22 25 25 25 23 22 21 20 19 19 21 25 27 29 30 29 28 28 28 28 27 26 26 25 25 26 26 27 28
4 3 2 1 1 1 2 2 3 4 5 5 5 5 6 8 10 9 7 7 9 11 10 7 4 3 2 0 1 2 2 2 2 1 1 1 1 1 1 1 0 1 1 2 4 4 4 6 11 14 13 12 10 11 13 12 13 16 21 24 25 24 24 23 22 22 21 20 20 23 26 29 30 30 28 28 28 28 27 25 24 24 24 25 26 27 27
4 3 2 2 1 2 2 4 7 9 11 11 7 6 8 9 10 9 10 10 11 10 7 3 1 3 2 1 1 2 3 1 1 1 1 1 1 0 1 1 1 2 2 3 4 4 6 10 16 17 15 12 10 10 11 11 11 14 19 22 23 23 21 19 18 19 21 21 22 23 26 28 29 28 28 29 29 27 26 26 24 22 23 25 27 28 28
5 3 3 2 2 3 6 8 7 8 10 10 8 8 9 10 10 10 10 9 8 6 3 2 2 3 1 0 1 2 3 1 1 1 1 1 1 1 1 1 2 2 2 3 4 5 8 12 14 11 9 9 9 8 8 8 9 10 13 17 19 21 20 17 16 17 20 22 23 24 25 26 27 27 28 29 30 28 27 26 24 23 24 26 28 29 30
7 5 4 3 3 5 7 8 6 4 5 9 12 12 12 12 12 11 9 8 8 6 3 2 2 3 1 1 0 1 2 2 2 1 1 1 2 2 2 2 2 3 3 3 6 8 9 10 9 6 3 2 4 6 6 6 6 8 10 11 14 17 18 19 19 21 23 22 22 23 24 24 25 26 27 28 30 30 29 27 25 24 25 27 28 29 31
6 5 5 6 8 8 8 7 5 5 6 12 16 16 12 11 12 10 8 8 8 5 2 2 2 3 2 0 1 1 2 2 2 2 2 2 2 2 2 3 4 5 3 3 5 6 5 5 5 4 1 1 2 5 5 4 5 7 9 9 11 13 16 17 19 22 23 22 21 22 23 22 23 24 25 27 29 30 30 28 26 24 25 28 29 30 33
4 4 5 8 12 14 14 14 14 13 14 17 18 16 12 11 12 12 11 10 7 3 2 1 1 2 2 1 1 1 1 1 1 2 3 2 1 2 2 3 3 3 3 4 4 3 3 4 6 6 5 3 3 4 4 4 5 6 7 8 9 12 15 16 17 18 20 21 21 22 21 21 21 23 25 28 30 32 31 29 27 25 27 29 31 31 33
Wind_Direction
328 331 332 331 331 332 331 332 330 331 338 342 344 349 351 343 318 239 163 160 179 178 195 290 238 230 247 242 246 250 253 267 275 281 286 287 273 248 232 181 210 214 173 138 9 334 324 69 81 80 68 116 163 164 111 93 88 88 83 322 11 73 79 65 322 304 303 300 322 14 50 82 77 34 126 137 136 133 141 164 173 149 275 63 66 353 268
328 331 332 331 331 332 333 334 330 330 338 345 348 351 347 334 318 268 202 197 200 206 269 237 238 274 263 257 261 256 252 255 262 266 269 270 261 238 264 205 182 237 201 149 199 241 52 69 102 121 68 167 185 133 112 109 99 90 153 174 100 65 72 85 54 356 350 343 349 359 354 23 60 304 288 137 128 108 103 113 95 86 229 163 119 225 259
326 330 332 331 330 332 334 335 330 327 334 343 347 348 346 338 324 313 326 300 219 225 233 218 242 282 285 287 277 267 267 267 269 270 267 267 250 193 259 251 179 219 262 92 219 168 159 165 107 106 128 206 251 122 124 125 119 127 145 147 133 135 141 109 107 108 103 325 303 281 296 331 343 314 337 127 131 125 124 105 83 108 237 137 130 206 257
324 327 330 330 329 331 334 335 330 323 328 339 346 347 353 355 337 336 340 345 331 268 273 290 308 295 306 300 276 267 271 282 289 287 277 271 254 206 236 252 162 230 228 63 271 226 172 154 141 156 167 203 212 153 144 138 138 142 140 133 117 94 94 121 136 150 175 197 218 230 232 304 309 301 240 143 142 135 116 96 122 179 163 77 189 189 192
321 324 326 328 329 329 332 335 330 320 324 336 344 347 357 2 347 5 342 334 355 347 336 352 351 313 315 306 271 280 275 283 299 297 290 273 248 213 224 223 191 232 211 175 281 266 262 126 150 192 184 195 186 149 140 140 147 145 134 131 119 74 37 181 148 170 205 205 220 252 259 240 266 274 235 166 146 130 107 117 197 157 98 325 256 182 164
319 321 323 326 328 327 330 335 331 320 322 333 343 349 5 349 327 355 1 321 337 355 333 331 325 311 315 301 268 277 271 272 291 293 302 287 244 199 257 238 214 209 191 155 274 280 312 213 181 223 193 103 78 83 89 151 158 146 129 143 130 92 164 215 173 201 240 225 235 262 268 248 260 249 216 188 144 124 118 154 178 131 119 218 226 171 176
319 322 323 323 326 326 328 333 330 322 323 332 350 6 10 2 331 327 342 328 295 299 305 311 311 307 313 297 269 273 265 269 269 255 291 303 255 196 213 240 248 234 188 134 147 217 251 272 263 200 147 96 104 99 341 215 174 136 123 165 131 97 195 228 183 238 294 277 267 297 349 326 314 345 127 135 120 118 125 147 148 120 134 176 154 146 193
320 322 323 322 324 323 324 331 329 323 324 333 12 37 6 5 355 325 330 320 293 301 310 317 318 307 308 286 267 288 291 303 309 283 270 296 294 238 231 302 298 269 231 128 171 219 184 183 222 189 153 12 169 161 173 209 192 110 123 181 77 111 212 247 116 49 314 297 309 360 24 29 5 5 40 82 92 94 99 116 115 103 114 136 125 132 226
320 322 324 321 322 321 321 327 325 322 324 327 2 26 335 321 297 307 319 307 294 317 318 319 324 302 297 290 295 312 326 342 343 324 297 305 340 106 62 13 360 324 310 113 93 290 243 210 242 213 189 195 190 186 188 178 164 131 144 154 88 120 171 303 75 65 295 295 349 351 2 66 57 358 11 82 87 83 78 88 119 124 131 130 116 136 235
320 322 323 321 321 319 318 322 323 320 318 315 320 326 317 307 272 266 303 285 288 327 321 316 321 292 306 331 328 322 328 345 354 335 320 349 4 23 79 64 38 358 351 56 352 326 310 309 337 317 232 207 182 180 186 175 166 153 140 149 152 136 129 130 101 97 260 282 350 343 360 49 26 289 217 129 107 108 106 73 61 114 135 142 159 206 218
319 320 322 320 318 317 315 318 319 318 314 312 329 353 343 345 330 333 2 302 284 325 334 326 330 311 324 337 336 330 332 341 353 353 321 334 346 1 27 51 75 47 351 357 351 343 329 338 1 354 286 214 189 190 191 179 172 161 145 144 161 133 129 153 135 127 242 275 11 41 37 58 246 251 193 150 128 114 107 84 63 72 104 127 156 177 166
319 319 320 319 317 313 312 313 312 316 317 314 331 14 359 9 28 5 0 306 292 330 336 301 308 314 325 332 334 337 337 333 337 350 346 323 331 356 11 29 72 10 348 1 4 6 16 4 2 360 335 226 190 189 173 147 171 163 146 141 149 136 133 146 122 126 204 294 42 49 346 235 249 289 108 126 120 109 98 70 44 71 103 116 125 141 166
318 318 317 318 317 311 308 308 307 309 312 309 321 44 192 269 64 45 7 311 275 306 326 308 309 319 333 338 338 339 342 342 345 354 5 356 348 3 11 13 6 340 341 4 14 15 29 40 19 2 337 347 32 63 88 97 119 121 115 124 144 144 136 122 107 121 142 63 77 122 238 256 296 334 115 118 109 105 96 65 22 32 130 137 147 167 180
316 316 315 314 315 310 305 304 301 302 304 305 307 221 196 221 188 78 4 325 253 298 318 311 317 334 341 340 340 342 345 350 351 350 358 1 354 1 6 3 359 348 341 3 17 19 38 53 30 10 340 359 22 9 334 199 149 120 118 154 153 136 127 112 112 143 125 116 144 228 294 327 324 255 176 150 148 148 128 104 18 258 200 162 154 167 182
314 314 314 313 312 307 303 300 295 294 295 295 293 232 200 214 211 187 300 261 267 300 279 238 330 347 338 333 342 349 342 349 350 336 336 355 360 355 355 358 4 5 360 9 34 41 58 63 57 39 355 8 32 282 310 303 189 125 127 134 115 114 138 148 150 172 104 100 73 3 12 310 262 252 289 306 143 132 113 104 195 265 216 178 162 166 181
316 314 312 311 310 306 299 296 294 291 285 284 287 238 204 208 206 197 227 237 254 290 227 211 343 338 323 325 341 355 353 345 344 328 326 350 356 350 351 358 10 17 15 22 89 73 57 83 106 127 206 218 207 259 292 331 311 352 91 94 81 80 102 114 113 91 76 101 109 192 191 241 248 251 306 338 126 125 98 71 306 258 201 182 172 171 180
315 312 309 307 306 302 297 293 290 287 282 280 281 243 207 204 206 205 219 228 233 254 255 276 327 335 328 338 341 351 359 343 328 328 316 327 350 354 351 353 7 21 19 18 83 68 69 120 95 89 227 238 166 240 275 120 63 314 24 64 69 70 59 70 97 125 134 121 138 222 215 231 238 239 294 350 131 117 81 36 280 226 188 187 185 181 188
313 308 305 303 301 298 294 290 285 283 281 279 279 250 207 206 214 215 221 233 250 263 259 269 327 331 326 334 323 325 345 342 329 327 315 310 353 352 338 336 357 18 16 15 56 97 91 136 121 115 229 278 174 189 260 238 175 226 148 71 63 72 66 75 116 143 155 148 170 248 250 231 239 268 325 15 79 78 78 219 232 189 179 189 192 188 194
313 307 302 300 300 296 292 290 283 278 276 274 274 251 204 205 214 222 236 244 250 256 247 239 275 292 294 303 302 300 319 330 337 356 339 324 345 338 326 328 15 10 7 18 17 151 120 166 205 139 161 288 294 167 221 221 209 199 146 114 96 104 79 51 112 142 155 158 164 242 277 243 223 276 6 43 69 113 217 206 176 164 174 187 192 193 196
313 309 302 300 302 300 295 291 282 273 269 268 269 250 198 196 198 213 247 258 263 271 272 268 273 278 277 281 286 292 306 309 309 358 337 274 327 340 342 25 8 357 6 23 348 325 114 191 255 123 157 234 250 137 224 264 264 193 155 147 164 160 144 106 168 161 136 90 91 95 264 234 204 204 16 36 84 189 174 150 148 167 178 183 190 197 191
315 312 309 306 305 302 298 295 282 267 260 258 261 237 188 191 192 200 231 251 263 276 281 269 257 261 262 264 268 271 278 277 277 292 290 283 310 342 25 248 315 330 19 25 343 327 26 318 282 2 200 245 347 299 208 292 311 236 148 126 142 167 156 170 214 186 126 113 169 201 199 189 182 183 162 136 160 167 158 153 162 175 183 187 191 195 189
318 318 320 316 310 307 303 298 284 264 250 249 254 225 190 194 199 202 224 242 251 260 266 267 268 269 264 261 263 262 262 268 276 280 279 280 291 295 265 280 306 314 358 20 14 248 356 351 327 8 339 331 3 310 225 142 295 282 70 99 201 229 188 156 166 195 166 168 212 204 165 158 167 168 155 144 149 164 169 172 175 178 187 194 191 184 184
325 328 328 323 317 316 312 304 289 262 244 242 248 234 208 206 210 218 236 253 264 270 274 277 277 276 271 264 263 265 269 274 279 277 270 266 273 279 267 266 292 322 25 49 42 301 313 258 215 48 313 253 39 354 331 38 205 267 306 329 225 198 163 132 118 229 246 24 124 148 145 150 153 151 153 157 162 172 179 181 182 184 191 197 195 188 182
327 332 332 327 322 321 316 309 294 263 243 240 245 245 231 219 221 239 253 265 284 294 291 281 269 270 284 284 265 254 265 275 277 284 279 261 253 260 258 243 257 299 11 28 356 335 327 301 301 83 105 286 357 52 347 319 272 251 339 308 293 216 135 113 95 138 203 309 189 146 146 151 148 146 155 163 163 170 178 179 180 185 188 189 191 188 179
321 328 331 329 325 323 319 314 300 266 242 237 241 249 242 218 217 238 256 270 298 310 306 286 272 266 280 284 263 243 245 254 253 259 269 259 248 248 251 248 251 264 270 308 340 338 331 307 320 55 356 294 300 217 178 250 270 258 109 239 263 261 102 91 74 97 123 206 182 146 142 148 153 156 162 163 161 167 176 177 178 180 179 177 180 181 177
310 321 326 325 324 326 324 321 313 279 248 242 246 252 243 209 205 222 234 261 289 283 264 274 280 279 279 278 266 250 246 249 246 242 245 255 260 259 258 259 258 259 259 269 313 323 312 217 167 119 172 281 324 319 205 239 277 274 227 229 202 129 140 178 98 95 93 63 100 122 122 126 160 166 168 170 171 170 170 174 177 173 168 166 169 176 179
301 313 321 319 319 322 319 314 318 301 273 262 258 257 248 215 204 215 217 224 290 281 252 273 289 297 301 295 278 259 252 250 248 245 244 254 263 256 251 253 254 254 254 259 278 288 270 224 253 207 216 277 304 279 234 250 262 236 245 255 132 112 165 202 95 105 147 184 154 148 134 170 198 182 172 171 174 172 170 172 174 169 166 164 161 165 176
296 302 310 314 313 311 306 303 301 303 304 289 270 271 273 249 217 215 210 205 252 271 279 296 299 302 306 303 286 263 255 248 244 245 251 264 261 239 232 236 245 249 249 249 251 235 201 206 255 227 240 292 293 258 243 241 215 229 257 238 185 152 172 169 134 144 190 181 173 174 173 181 185 180 172 173 178 177 174 172 171 168 168 167 162 162 169
293 294 301 307 306 298 297 295 285 279 292 292 283 289 294 253 205 204 204 204 229 267 287 300 301 299 302 301 293 278 260 245 240 243 250 263 255 231 226 229 233 238 240 235 225 222 225 226 227 230 254 301 322 276 265 233 204 232 234 223 212 191 182 168 146 138 155 168 174 181 184 170 176 177 173 174 179 180 174 167 164 163 163 163 162 163 168
294 298 304 304 296 284 282 284 275 263 260 276 292 322 92 124 161 177 189 199 212 250 288 299 296 297 302 302 301 298 272 238 233 238 241 243 240 237 237 236 232 231 233 229 221 224 234 235 235 243 250 255 261 272 244 230 250 247 224 215 209 182 175 172 161 155 165 167 167 174 175 165 167 168 167 172 180 183 174 162 159 160 160 158 156 159 167
299 306 312 308 294 278 273 274 275 262 249 259 273 233 142 140 163 162 172 190 205 233 272 276 282 295 300 301 305 311 304 254 235 237 237 233 233 239 248 249 240 229 221 218 219 220 221 226 237 251 250 248 242 212 207 248 279 273 238 219 203 182 172 170 168 168 167 164 162 166 164 159 158 157 160 171 180 179 170 162 160 158 158 157 153 156 164
303 314 319 316 302 282 269 267 276 267 250 254 258 224 167 136 157 173 184 195 206 227 257 276 292 294 291 305 317 315 295 267 259 250 242 237 240 243 243 243 243 235 224 218 216 217 222 229 235 249 259 258 251 213 223 232 234 250 251 229 204 189 178 171 168 166 164 166 165 153 146 157 166 167 167 173 177 173 167 165 163 159 161 162 157 156 163
302 312 314 307 299 298 289 276 276 270 256 261 264 238 189 151 145 170 193 199 208 228 244 278 307 270 272 308 324 335 313 264 261 249 240 238 241 244 236 229 228 229 223 214 205 202 215 221 221 237 254 255 251 235 238 234 237 252 249 220 191 180 175 172 171 168 166 173 180 176 169 175 179 175 169 171 172 169 167 167 166 165 168 168 163 162 168
294 302 299 283 282 303 310 296 285 274 271 279 280 249 205 181 163 170 196 197 212 238 246 262 275 265 299 310 318 4 13 328 257 221 220 227 225 223 218 215 216 217 212 209 203 196 204 208 203 216 246 244 234 226 240 243 253 262 248 211 183 173 169 167 168 168 170 176 186 197 191 180 172 165 167 170 168 166 166 167 165 164 165 166 167 169 173
288 296 289 274 274 281 284 286 285 281 288 304 306 185 172 170 171 193 222 226 231 247 255 258 248 259 321 316 293 346 360 350 291 224 218 216 215 211 201 194 198 204 201 202 202 196 189 191 196 209 238 235 226 227 229 234 246 256 244 208 179 167 164 165 167 171 176 178 177 173 175 174 169 166 168 169 168 167 166 164 163 163 162 165 170 173 173
280 296 299 287 278 275 276 281 285 290 321 356 60 142 155 168 187 200 216 228 234 240 264 287 271 252 283 295 293 325 347 355 351 308 221 210 220 213 192 158 156 194 193 186 188 204 190 180 183 202 224 208 220 234 234 232 235 240 236 210 184 174 176 180 178 177 179 181 178 174 176 177 174 171 170 171 171 170 169 167 167 166 164 166 171 174 173
272 294 309 301 288 282 287 290 292 23 14 7 44 123 141 194 204 198 211 228 238 241 245 264 272 254 252 281 302 315 336 351 354 5 34 34 346 251 158 93 118 187 187 179 182 198 192 184 184 205 216 215 231 243 247 244 237 237 237 221 198 188 190 189 183 180 181 182 181 181 181 179 177 174 173 173 172 173 175 175 176 175 171 169 172 176 175
262 286 311 308 283 300 349 354 59 71 41 34 237 336 302 227 210 210 214 222 238 239 231 233 250 249 247 263 271 271 298 347 347 348 22 25 360 358 30 33 69 113 343 263 215 204 200 192 191 209 222 229 234 238 246 255 251 245 244 233 215 205 201 195 189 187 184 179 178 180 180 178 177 177 177 177 177 178 180 180 181 182 179 175 174 176 178
254 282 324 307 225 257 335 343 322 229 182 157 223 279 257 208 192 198 200 201 220 226 214 220 242 238 224 224 258 262 268 306 335 324 359 40 15 1 5 2 11 31 356 295 206 191 202 262 243 222 238 245 232 230 239 250 251 249 248 239 224 215 209 203 199 200 197 192 189 189 188 186 183 181 181 181 181 181 182 183 183 183 182 180 179 180 181
243 259 257 270 259 261 305 337 322 204 186 169 217 253 242 208 199 183 173 181 205 211 209 224 245 239 226 224 247 264 256 238 250 278 267 159 92 37 69 354 358 13 284 270 220 159 154 269 247 230 240 241 225 226 234 242 247 250 250 242 228 219 213 207 205 208 209 203 196 194 197 198 193 187 184 185 184 182 182 185 187 187 186 186 187 187 188
202 211 232 262 274 274 291 315 290 203 197 203 219 229 224 214 218 211 190 191 227 221 218 220 227 231 226 222 224 237 240 232 241 265 270 176 154 129 136 161 131 60 257 258 251 104 92 244 255 245 240 234 233 235 239 243 245 246 246 242 236 228 220 211 206 207 208 204 197 195 199 201 196 190 189 190 190 186 184 186 189 190 191 190 191 192 193
221 250 260 269 279 286 292 294 231 196 195 190 219 246 233 206 216 222 215 221 236 233 220 217 217 230 232 221 218 225 233 226 230 247 259 154 181 210 131 93 76 75 235 242 266 61 62 249 254 252 240 237 243 248 248 247 244 242 239 238 235 228 220 213 208 207 207 205 201 200 200 199 196 193 191 192 192 190 188 188 190 192 194 194 193 192 192
239 261 277 283 284 289 290 246 195 190 191 154 156 276 276 238 223 220 214 226 253 294 314 278 268 273 262 220 214 224 233 229 226 230 172 136 174 199 74 67 98 216 240 229 91 87 189 225 233 247 251 255 257 256 252 248 243 237 233 231 228 223 217 213 211 208 205 204 204 203 200 198 197 194 191 192 193 191 190 191 192 192 193 193 192 191 193
246 250 273 291 277 249 212 184 178 174 172 159 167 199 252 260 240 224 230 286 290 314 338 332 316 297 253 211 207 215 224 223 212 159 102 127 155 136 123 226 234 242 316 350 144 200 229 231 233 245 258 267 268 260 254 250 242 233 228 226 223 220 216 214 212 209 202 199 202 203 201 199 197 194 192 193 194 192 191 193 196 195 193 191 191 192 193
232 214 207 305 270 200 170 170 186 186 198 218 199 198 216 230 224 234 312 312 296 297 323 334 336 339 317 243 223 211 198 179 157 142 164 186 112 146 199 215 210 49 13 297 243 237 247 251 246 248 256 262 262 257 255 254 245 235 228 223 219 217 214 211 208 205 200 197 198 200 200 199 198 196 194 195 197 196 193 193 196 197 195 192 191 191 192
208 196 167 131 275 214 181 165 36 165 183 208 217 220 234 263 283 302 321 313 297 298 317 335 349 12 27 333 275 243 194 147 123 118 120 115 133 269 246 123 91 49 17 294 264 252 244 249 258 260 262 263 260 255 251 250 244 234 225 218 214 213 213 210 207 204 203 201 200 201 201 200 199 197 196 195 198 199 197 195 197 199 197 194 193 192 191
211 209 171 178 261 239 210 226 238 242 256 269 271 275 290 297 300 308 324 324 311 306 311 329 3 45 78 92 286 267 228 165 129 70 67 105 197 282 342 54 125 177 163 221 250 249 241 254 264 266 263 260 253 244 241 243 241 233 224 216 211 208 208 207 205 204 204 203 201 201 202 202 200 198 196 196 197 199 199 199 200 202 202 200 197 194 191
210 198 173 196 227 207 210 229 238 250 267 282 299 325 327 315 308 313 322 323 319 313 303 290 87 82 72 49 337 266 246 205 143 237 237 143 116 6 2 343 250 228 203 219 234 239 260 281 285 278 263 249 242 237 235 235 233 225 217 212 208 205 201 200 200 201 202 204 205 204 204 203 202 199 198 198 199 199 200 200 201 203 203 201 197 194 191
229 219 204 231 266 267 267 272 272 272 279 292 314 340 342 327 316 318 327 332 333 325 293 221 132 101 85 13 312 261 254 241 114 212 232 147 118 176 201 189 221 244 241 232 241 263 293 310 313 304 275 250 241 234 228 227 225 217 212 213 215 214 212 211 213 213 210 209 210 209 206 204 204 204 202 201 200 200 199 198 197 199 201 200 195 191 188
235 240 232 231 256 287 297 301 302 300 309 318 323 329 331 325 319 321 332 337 333 319 272 203 115 77 53 294 337 295 259 230 161 136 159 172 183 202 208 208 223 226 222 242 272 291 310 320 319 314 309 270 231 224 225 234 238 232 225 221 220 218 215 214 217 217 215 212 210 208 204 201 204 206 205 203 203 202 199 196 195 196 199 199 196 190 186
224 232 232 226 232 252 277 292 290 284 295 301 302 304 308 309 310 316 326 328 326 320 267 185 107 73 57 277 234 234 243 219 150 141 185 212 197 177 189 215 222 218 224 287 300 299 310 314 293 274 267 114 175 201 211 221 234 236 233 225 215 209 206 203 204 207 210 209 207 206 203 202 204 208 208 205 203 200 195 191 190 193 196 198 197 191 186
209 225 248 248 246 252 262 268 270 274 279 282 286 293 300 302 304 310 315 315 312 301 262 242 119 115 144 230 256 250 254 250 167 172 200 217 182 167 202 239 254 256 284 315 308 261 253 284 282 266 250 230 210 202 195 192 201 217 226 225 218 212 210 208 206 208 210 210 208 208 206 202 202 206 209 206 202 197 193 190 189 192 195 198 197 192 188
Height
1534 1533 1531 1529 1527 1525 1524 1521 1519 1516 1514 1513 1511 1510 1508 1508 1506 1503 1503 1504 1503 1504 1505 1504 1503 1502 1500 1497 1495 1495 1494 1492 1491 1489 1487 1486 1483 1480 1480 1480 1481 1482 1482 1483 1484 1485 1486 1487 1488 1489 1488 1485 1484 1482 1481 1481 1482 1487 1495 1497 1493 1496 1504 1511 1513 1510 1503 1497 1492 1489 1489 1491 1496 1499 1499 1503 1505 1507 1513 1520 1522 1524 1528 1528 1534 1544 1535
1533 1532 1530 1528 1527 1525 1523 1521 1519 1516 1515 1513 1512 1511 1509 1507 1505 1502 1503 1504 1503 1504 1504 1504 1504 1501 1498 1496 1494 1493 1492 1490 1490 1488 1486 1485 1483 1482 1480 1478 1478 1479 1478 1480 1483 1484 1488 1489 1487 1487 1489 1485 1481 1480 1479 1481 1484 1488 1492 1494 1494 1500 1507 1512 1519 1522 1516 1510 1507 1502 1497 1498 1502 1503 1500 1501 1502 1505 1509 1511 1515 1524 1527 1526 1536 1544 1532
1532 1531 1530 1528 1526 1525 1523 1521 1519 1517 1516 1515 1513 1512 1510 1507 1505 1502 1502 1502 1502 1502 1501 1501 1502 1501 1499 1498 1495 1493 1490 1487 1487 1486 1483 1481 1480 1480 1479 1476 1475 1476 1476 1479 1481 1481 1485 1488 1486 1486 1487 1485 1482 1481 1481 1481 1483 1486 1488 1488 1490 1499 1505 1508 1519 1531 1532 1529 1525 1516 1508 1505 1504 1503 1501 1501 1501 1504 1509 1513 1520 1527 1526 1523 1530 1535 1528
1531 1530 1529 1527 1525 1524 1522 1521 1519 1517 1516 1515 1514 1513 1511 1510 1508 1505 1502 1500 1500 1501 1500 1500 1501 1501 1501 1499 1494 1492 1490 1486 1483 1482 1480 1477 1475 1476 1476 1474 1475 1477 1478 1482 1483 1480 1480 1483 1486 1486 1486 1486 1482 1481 1481 1481 1482 1484 1486 1486 1490 1498 1503 1504 1511 1519 1522 1521 1516 1509 1508 1509 1507 1505 1503 1502 1502 1502 1506 1514 1521 1523 1524 1526 1526 1525 1525
1530 1529 1528 1526 1525 1523 1522 1520 1519 1517 1516 1515 1514 1513 1512 1512 1512 1510 1508 1504 1502 1501 1500 1500 1501 1500 1502 1501 1494 1491 1490 1486 1483 1481 1478 1475 1472 1473 1473 1473 1477 1480 1480 1483 1485 1482 1480 1481 1483 1484 1484 1483 1481 1480 1481 1482 1483 1484 1484 1486 1491 1500 1505 1504 1506 1508 1507 1508 1507 1504 1505 1508 1506 1504 1503 1502 1502 1502 1505 1513 1516 1516 1523 1530 1525 1519 1523
1529 1528 1527 1525 1524 1523 1521 1520 1518 1517 1516 1515 1515 1514 1513 1513 1512 1511 1512 1511 1509 1507 1504 1502 1502 1500 1500 1499 1494 1491 1490 1488 1486 1483 1478 1474 1471 1474 1476 1475 1476 1477 1479 1482 1485 1484 1484 1484 1483 1483 1482 1482 1484 1485 1484 1483 1483 1484 1485 1486 1489 1499 1506 1503 1502 1505 1503 1502 1503 1501 1502 1503 1502 1502 1502 1500 1501 1503 1505 1509 1510 1511 1519 1524 1520 1519 1522
1527 1526 1525 1524 1523 1522 1521 1519 1518 1517 1516 1515 1515 1514 1514 1514 1513 1511 1511 1512 1510 1509 1506 1504 1502 1500 1499 1498 1493 1491 1489 1488 1485 1482 1479 1477 1472 1474 1479 1477 1473 1473 1474 1479 1484 1486 1487 1487 1485 1482 1482 1483 1486 1489 1489 1486 1483 1484 1487 1487 1488 1497 1503 1501 1500 1503 1502 1500 1501 1500 1500 1503 1503 1502 1501 1499 1501 1502 1503 1505 1506 1507 1513 1516 1516 1519 1520
1526 1525 1524 1523 1522 1521 1520 1519 1517 1516 1516 1515 1515 1515 1514 1515 1515 1513 1512 1511 1509 1507 1505 1504 1503 1500 1499 1498 1493 1489 1488 1487 1484 1480 1480 1481 1476 1473 1478 1477 1473 1472 1472 1475 1480 1481 1480 1483 1482 1480 1481 1483 1484 1487 1488 1486 1484 1485 1488 1489 1490 1495 1501 1500 1500 1504 1505 1500 1499 1501 1502 1503 1504 1504 1502 1500 1502 1504 1504 1505 1506 1508 1515 1519 1519 1520 1520
1525 1524 1523 1522 1521 1520 1519 1518 1517 1516 1515 1515 1515 1515 1515 1515 1516 1514 1514 1511 1508 1506 1504 1503 1504 1502 1499 1498 1494 1489 1488 1487 1486 1481 1477 1478 1478 1475 1476 1476 1473 1472 1473 1475 1478 1476 1474 1476 1476 1474 1476 1478 1479 1480 1481 1481 1483 1487 1489 1490 1491 1494 1500 1500 1501 1509 1510 1502 1501 1504 1502 1501 1505 1505 1503 1501 1503 1507 1508 1507 1505 1507 1515 1522 1522 1520 1518
1523 1522 1522 1521 1520 1519 1518 1517 1516 1515 1515 1514 1514 1515 1514 1514 1514 1514 1514 1512 1507 1506 1505 1503 1504 1503 1499 1497 1494 1491 1488 1485 1485 1485 1479 1474 1476 1475 1474 1473 1474 1476 1477 1478 1477 1474 1472 1472 1471 1470 1471 1471 1471 1474 1475 1475 1479 1484 1488 1490 1490 1493 1498 1500 1503 1512 1511 1503 1503 1504 1503 1509 1514 1507 1501 1502 1504 1506 1507 1507 1505 1505 1509 1515 1516 1514 1512
1521 1521 1520 1520 1519 1518 1517 1516 1516 1514 1514 1514 1514 1514 1513 1513 1513 1512 1513 1512 1508 1506 1506 1505 1504 1502 1498 1497 1494 1491 1488 1485 1485 1488 1485 1477 1475 1475 1473 1472 1475 1478 1479 1478 1476 1472 1470 1469 1468 1469 1469 1469 1469 1470 1472 1473 1475 1479 1482 1487 1490 1491 1494 1499 1502 1508 1512 1506 1501 1504 1514 1523 1517 1501 1495 1499 1500 1502 1507 1509 1508 1506 1506 1507 1509 1509 1509
1520 1519 1519 1518 1518 1517 1516 1515 1515 1514 1513 1513 1513 1513 1512 1512 1513 1512 1513 1513 1510 1507 1506 1505 1504 1502 1499 1498 1495 1491 1489 1487 1484 1485 1484 1479 1475 1475 1473 1472 1475 1478 1476 1475 1473 1471 1469 1468 1468 1470 1471 1470 1469 1470 1472 1474 1475 1476 1476 1482 1489 1491 1493 1497 1499 1505 1510 1505 1504 1518 1529 1521 1504 1495 1494 1495 1496 1499 1505 1510 1510 1508 1507 1507 1508 1510 1510
1518 1518 1517 1517 1517 1516 1515 1514 1514 1513 1513 1513 1513 1513 1512 1512 1512 1512 1513 1514 1511 1508 1507 1505 1502 1502 1500 1497 1495 1492 1489 1487 1484 1481 1480 1479 1477 1476 1475 1475 1477 1476 1474 1473 1472 1470 1471 1471 1473 1475 1475 1472 1472 1473 1474 1474 1475 1476 1475 1477 1483 1489 1493 1496 1500 1505 1509 1510 1516 1527 1525 1508 1497 1498 1498 1496 1498 1500 1504 1513 1515 1510 1509 1508 1508 1510 1510
1517 1516 1516 1516 1515 1515 1514 1513 1512 1512 1512 1512 1512 1512 1512 1511 1511 1511 1512 1513 1511 1508 1507 1505 1502 1500 1500 1498 1496 1493 1489 1486 1484 1481 1479 1479 1479 1478 1477 1477 1476 1475 1473 1473 1472 1473 1476 1478 1480 1483 1482 1480 1481 1481 1479 1476 1475 1475 1476 1476 1478 1484 1490 1495 1501 1505 1509 1514 1518 1517 1513 1508 1503 1502 1498 1496 1497 1496 1499 1512 1518 1511 1508 1508 1508 1510 1511
1515 1514 1514 1514 1513 1513 1512 1511 1511 1511 1510 1511 1511 1511 1511 1511 1510 1511 1511 1512 1512 1508 1505 1505 1503 1501 1500 1499 1497 1495 1492 1490 1487 1483 1480 1479 1479 1478 1478 1476 1474 1473 1472 1472 1475 1477 1480 1483 1489 1494 1493 1491 1492 1489 1483 1480 1477 1474 1476 1478 1478 1480 1485 1492 1500 1505 1506 1512 1518 1519 1522 1519 1508 1501 1496 1492 1492 1491 1493 1507 1517 1511 1507 1507 1507 1508 1510
1513 1512 1512 1512 1512 1511 1511 1510 1510 1509 1509 1510 1510 1510 1510 1510 1510 1510 1510 1511 1512 1508 1502 1501 1503 1503 1501 1499 1498 1497 1496 1494 1491 1488 1483 1480 1479 1478 1477 1476 1474 1473 1472 1473 1476 1479 1483 1487 1492 1497 1496 1494 1494 1492 1487 1485 1483 1478 1475 1476 1479 1482 1485 1488 1497 1505 1506 1511 1519 1524 1524 1517 1505 1499 1496 1493 1494 1492 1493 1508 1517 1510 1505 1507 1507 1507 1509
1512 1511 1510 1510 1510 1510 1509 1509 1508 1508 1508 1508 1509 1509 1509 1509 1509 1509 1509 1510 1510 1505 1500 1500 1503 1502 1501 1500 1499 1498 1497 1496 1495 1493 1489 1485 1482 1480 1477 1475 1474 1473 1473 1475 1477 1480 1485 1489 1491 1495 1494 1489 1489 1491 1489 1487 1487 1484 1479 1479 1483 1487 1488 1490 1498 1505 1506 1510 1516 1518 1514 1508 1501 1497 1495 1495 1493 1491 1501 1518 1518 1504 1502 1507 1506 1506 1508
1510 1509 1509 1508 1508 1508 1507 1507 1507 1506 1506 1507 1507 1507 1508 1508 1508 1508 1508 1509 1508 1503 1500 1501 1502 1501 1502 1502 1501 1500 1499 1498 1496 1495 1493 1488 1486 1485 1483 1480 1477 1475 1475 1478 1480 1482 1486 1489 1490 1493 1493 1487 1485 1489 1490 1488 1488 1488 1485 1486 1489 1490 1491 1494 1498 1503 1506 1510 1514 1514 1509 1503 1499 1496 1495 1493 1493 1498 1512 1519 1507 1498 1502 1505 1504 1506 1508
1509 1508 1507 1507 1507 1506 1506 1505 1505 1504 1505 1505 1505 1506 1506 1507 1507 1507 1507 1507 1506 1501 1499 1500 1501 1501 1501 1501 1500 1499 1499 1499 1498 1498 1496 1493 1489 1487 1485 1482 1481 1480 1478 1479 1482 1482 1485 1488 1486 1487 1491 1489 1485 1487 1490 1487 1486 1486 1485 1488 1492 1493 1495 1498 1500 1501 1506 1508 1511 1516 1512 1501 1496 1496 1494 1492 1498 1507 1510 1504 1497 1498 1503 1503 1504 1507 1507
1507 1506 1506 1505 1505 1504 1504 1503 1503 1503 1503 1504 1504 1504 1505 1505 1506 1506 1506 1506 1504 1500 1497 1498 1499 1499 1499 1499 1499 1499 1498 1498 1498 1498 1499 1497 1492 1488 1488 1487 1486 1484 1482 1485 1487 1485 1485 1488 1485 1484 1488 1489 1484 1486 1488 1486 1484 1483 1483 1485 1488 1490 1495 1502 1501 1500 1505 1509 1514 1520 1515 1501 1494 1496 1496 1495 1501 1505 1501 1497 1498 1501 1502 1503 1505 1506 1506
1506 1505 1504 1504 1503 1503 1502 1501 1501 1501 1502 1502 1502 1502 1503 1503 1503 1504 1504 1504 1503 1499 1496 1496 1497 1496 1497 1497 1497 1498 1498 1496 1497 1497 1497 1496 1494 1494 1496 1495 1492 1489 1488 1490 1492 1490 1489 1490 1488 1486 1487 1486 1484 1486 1489 1488 1485 1482 1479 1482 1485 1486 1492 1500 1499 1497 1503 1510 1511 1509 1502 1494 1492 1495 1497 1497 1498 1497 1496 1498 1500 1501 1502 1504 1505 1505 1506
1504 1503 1502 1502 1501 1501 1501 1500 1500 1500 1500 1500 1500 1500 1501 1502 1502 1503 1503 1502 1501 1498 1495 1495 1495 1494 1494 1494 1494 1496 1495 1494 1495 1496 1495 1495 1494 1495 1496 1495 1492 1492 1491 1491 1493 1494 1493 1492 1492 1490 1490 1489 1488 1488 1488 1490 1490 1484 1479 1481 1486 1485 1484 1489 1491 1491 1494 1498 1497 1492 1490 1491 1492 1493 1494 1495 1496 1496 1497 1498 1498 1500 1503 1503 1504 1505 1507
1503 1502 1501 1501 1500 1500 1499 1498 1498 1498 1498 1498 1499 1499 1500 1501 1501 1501 1501 1500 1499 1496 1494 1493 1492 1490 1489 1491 1492 1493 1493 1492 1493 1493 1494 1494 1493 1492 1493 1493 1493 1493 1492 1492 1493 1494 1493 1492 1491 1491 1492 1491 1490 1490 1489 1488 1489 1486 1482 1481 1482 1480 1479 1481 1485 1488 1488 1489 1489 1488 1489 1491 1492 1492 1493 1494 1495 1496 1497 1497 1498 1500 1501 1502 1504 1505 1505
1502 1501 1500 1499 1499 1499 1498 1497 1497 1497 1496 1497 1497 1497 1498 1499 1500 1499 1499 1499 1498 1496 1492 1490 1488 1487 1487 1487 1488 1488 1489 1489 1490 1490 1491 1493 1492 1491 1491 1492 1492 1492 1492 1493 1493 1492 1492 1491 1489 1490 1492 1490 1489 1492 1494 1492 1488 1485 1485 1484 1482 1479 1479 1480 1483 1487 1490 1492 1490 1488 1489 1491 1491 1492 1494 1494 1495 1496 1497 1497 1499 1499 1501 1502 1504 1504 1505
1501 1499 1499 1499 1498 1498 1497 1496 1495 1495 1495 1495 1496 1496 1497 1498 1498 1498 1499 1499 1498 1497 1494 1489 1485 1485 1485 1484 1484 1485 1486 1486 1487 1487 1488 1489 1489 1489 1489 1490 1492 1492 1491 1492 1493 1492 1492 1492 1490 1492 1494 1490 1488 1491 1494 1492 1489 1486 1486 1487 1484 1481 1481 1482 1484 1487 1491 1493 1491 1489 1491 1492 1492 1492 1494 1494 1495 1496 1497 1497 1498 1499 1500 1502 1503 1504 1506
1499 1499 1498 1497 1497 1497 1496 1495 1494 1494 1494 1494 1494 1495 1496 1496 1497 1497 1498 1498 1497 1497 1495 1489 1483 1482 1483 1481 1480 1482 1482 1483 1483 1484 1485 1486 1486 1486 1486 1487 1490 1490 1490 1491 1492 1492 1492 1492 1491 1493 1494 1491 1488 1489 1489 1489 1488 1486 1485 1484 1481 1481 1482 1483 1485 1490 1494 1494 1492 1492 1494 1495 1494 1494 1494 1494 1494 1495 1496 1497 1498 1499 1500 1502 1503 1505 1505
1498 1498 1497 1496 1496 1496 1495 1495 1494 1494 1493 1493 1493 1494 1494 1495 1496 1496 1497 1498 1497 1496 1494 1489 1482 1480 1480 1478 1477 1478 1479 1479 1480 1481 1481 1482 1482 1483 1484 1485 1486 1488 1488 1490 1491 1491 1491 1491 1490 1491 1492 1490 1488 1488 1487 1486 1485 1486 1485 1482 1479 1481 1483 1483 1486 1493 1496 1494 1491 1492 1494 1495 1494 1494 1494 1495 1495 1495 1495 1496 1497 1499 1500 1502 1503 1504 1506
1497 1496 1496 1495 1495 1495 1494 1494 1494 1493 1493 1493 1493 1493 1493 1493 1494 1495 1496 1497 1497 1496 1494 1490 1484 1480 1477 1475 1474 1475 1476 1476 1477 1478 1478 1478 1479 1480 1481 1482 1484 1485 1486 1488 1489 1489 1489 1490 1490 1489 1489 1488 1488 1487 1485 1485 1486 1486 1484 1481 1478 1480 1482 1482 1484 1489 1490 1489 1488 1489 1490 1490 1491 1492 1494 1495 1495 1495 1495 1496 1497 1499 1500 1501 1502 1503 1505
1496 1495 1495 1494 1494 1494 1493 1493 1493 1493 1493 1492 1492 1492 1492 1492 1492 1493 1494 1496 1496 1495 1494 1491 1486 1481 1477 1473 1471 1471 1473 1474 1474 1475 1475 1476 1477 1478 1479 1481 1482 1483 1484 1485 1486 1487 1487 1488 1488 1487 1487 1488 1488 1487 1485 1485 1487 1486 1482 1479 1477 1477 1478 1479 1481 1483 1485 1486 1487 1487 1487 1488 1489 1491 1493 1494 1494 1495 1495 1496 1498 1499 1500 1502 1503 1504 1505
1494 1494 1494 1493 1493 1493 1492 1492 1492 1492 1492 1492 1492 1492 1492 1492 1492 1492 1493 1494 1495 1495 1494 1493 1488 1481 1476 1472 1469 1469 1470 1471 1472 1472 1473 1473 1474 1476 1478 1479 1480 1481 1482 1483 1484 1485 1485 1485 1485 1485 1486 1486 1487 1487 1486 1486 1486 1482 1478 1477 1477 1477 1477 1478 1479 1481 1483 1485 1486 1486 1487 1487 1488 1491 1493 1494 1494 1495 1496 1497 1498 1499 1500 1502 1503 1505 1506
1494 1493 1492 1492 1492 1492 1491 1491 1491 1491 1491 1491 1491 1491 1491 1492 1492 1492 1493 1494 1494 1494 1494 1493 1489 1482 1476 1471 1468 1468 1467 1468 1469 1471 1471 1472 1473 1474 1476 1477 1478 1479 1480 1481 1482 1483 1483 1483 1483 1483 1483 1484 1485 1485 1485 1486 1486 1481 1476 1475 1476 1476 1476 1477 1478 1479 1481 1483 1485 1486 1487 1487 1488 1491 1493 1494 1494 1495 1496 1498 1499 1500 1501 1503 1504 1506 1507
1493 1492 1491 1491 1491 1490 1491 1490 1490 1490 1490 1490 1491 1491 1491 1491 1492 1492 1493 1493 1494 1494 1494 1493 1490 1485 1478 1471 1468 1467 1466 1467 1468 1469 1470 1471 1472 1473 1474 1475 1476 1477 1478 1479 1480 1480 1480 1481 1482 1482 1481 1483 1483 1482 1482 1484 1484 1480 1475 1474 1474 1474 1475 1475 1476 1478 1479 1481 1483 1485 1487 1487 1488 1489 1491 1492 1494 1495 1496 1498 1499 1500 1502 1503 1505 1507 1508
1492 1491 1491 1490 1490 1490 1490 1490 1489 1490 1490 1489 1490 1490 1491 1491 1492 1492 1493 1493 1494 1494 1494 1493 1491 1487 1480 1473 1468 1466 1466 1466 1467 1468 1469 1470 1471 1471 1472 1473 1474 1475 1476 1477 1477 1477 1478 1479 1480 1480 1480 1481 1481 1481 1481 1480 1478 1476 1474 1474 1474 1474 1474 1474 1475 1476 1478 1479 1481 1482 1484 1486 1487 1488 1490 1492 1493 1495 1496 1498 1499 1500 1501 1503 1505 1507 1509
1491 1491 1490 1490 1490 1489 1489 1489 1489 1489 1489 1489 1489 1489 1490 1491 1491 1492 1493 1493 1493 1494 1494 1493 1492 1488 1482 1476 1471 1468 1466 1467 1467 1466 1467 1468 1468 1469 1469 1471 1472 1473 1474 1474 1475 1475 1476 1476 1477 1479 1479 1478 1479 1480 1479 1476 1474 1473 1474 1473 1473 1474 1474 1474 1475 1475 1477 1478 1480 1481 1482 1484 1486 1489 1490 1491 1493 1495 1497 1497 1498 1499 1501 1503 1505 1507 1508
1490 1490 1489 1489 1489 1489 1489 1489 1489 1489 1488 1488 1488 1488 1489 1490 1491 1491 1492 1493 1493 1494 1493 1492 1492 1489 1486 1481 1476 1469 1466 1466 1465 1464 1465 1466 1467 1467 1468 1469 1471 1472 1472 1473 1473 1474 1473 1474 1476 1477 1477 1477 1478 1478 1475 1472 1472 1473 1472 1472 1473 1473 1474 1474 1475 1476 1477 1478 1480 1481 1482 1484 1486 1488 1489 1491 1492 1494 1496 1497 1498 1499 1500 1502 1504 1506 1508
1489 1489 1489 1488 1488 1488 1488 1488 1488 1488 1488 1488 1488 1489 1489 1490 1490 1491 1492 1492 1493 1493 1492 1492 1491 1489 1488 1486 1479 1471 1467 1466 1465 1464 1464 1465 1465 1466 1466 1468 1469 1470 1470 1471 1472 1472 1472 1472 1474 1476 1476 1476 1476 1473 1470 1470 1471 1471 1470 1471 1472 1472 1472 1473 1474 1476 1477 1479 1480 1480 1482 1484 1485 1487 1489 1490 1491 1493 1495 1497 1498 1498 1499 1501 1504 1506 1508
1489 1488 1488 1488 1488 1487 1487 1488 1488 1488 1488 1489 1489 1489 1489 1489 1490 1491 1491 1492 1492 1492 1492 1492 1490 1487 1486 1486 1481 1474 1470 1469 1467 1465 1465 1466 1466 1465 1466 1467 1469 1469 1469 1470 1470 1470 1470 1470 1471 1473 1473 1472 1470 1468 1468 1468 1469 1468 1469 1470 1470 1470 1471 1472 1473 1475 1477 1479 1480 1480 1482 1483 1485 1486 1488 1489 1490 1492 1493 1495 1496 1497 1498 1500 1502 1505 1507
1488 1488 1488 1487 1487 1487 1487 1487 1487 1488 1488 1489 1489 1490 1489 1490 1490 1490 1490 1491 1491 1490 1491 1491 1487 1484 1485 1486 1480 1474 1472 1472 1469 1468 1468 1468 1467 1467 1467 1468 1469 1469 1470 1470 1467 1466 1468 1469 1469 1470 1469 1467 1465 1466 1466 1467 1467 1467 1468 1468 1469 1470 1471 1472 1473 1474 1475 1477 1478 1480 1481 1482 1484 1485 1486 1487 1489 1490 1492 1494 1495 1497 1498 1499 1502 1504 1506
1487 1487 1487 1487 1487 1487 1487 1487 1487 1488 1488 1488 1489 1490 1489 1489 1490 1489 1489 1489 1489 1489 1489 1487 1483 1480 1483 1483 1477 1473 1473 1474 1473 1471 1469 1469 1469 1469 1470 1471 1471 1471 1473 1471 1467 1466 1469 1469 1468 1467 1467 1464 1463 1464 1464 1464 1465 1466 1466 1467 1468 1469 1470 1470 1471 1471 1471 1473 1474 1476 1477 1478 1480 1482 1484 1486 1487 1490 1492 1493 1495 1496 1498 1500 1502 1504 1506
1487 1487 1487 1487 1487 1487 1487 1487 1487 1487 1488 1489 1489 1489 1489 1488 1488 1487 1487 1487 1487 1486 1484 1482 1477 1475 1477 1479 1476 1473 1473 1474 1474 1472 1470 1470 1471 1471 1472 1474 1474 1475 1476 1473 1468 1466 1469 1470 1468 1467 1466 1462 1460 1461 1462 1462 1463 1464 1464 1465 1466 1467 1468 1469 1470 1470 1471 1472 1473 1474 1475 1477 1478 1480 1482 1484 1486 1489 1491 1493 1494 1496 1498 1500 1502 1503 1505
1486 1487 1487 1487 1487 1486 1487 1487 1487 1487 1488 1488 1489 1489 1489 1488 1486 1484 1484 1485 1485 1481 1477 1476 1474 1473 1472 1474 1475 1473 1471 1471 1472 1471 1470 1470 1471 1471 1473 1474 1474 1476 1477 1473 1467 1466 1468 1470 1469 1466 1462 1459 1458 1459 1460 1460 1460 1461 1462 1463 1464 1465 1466 1467 1468 1469 1470 1471 1473 1474 1475 1477 1478 1480 1481 1483 1485 1487 1489 1491 1493 1495 1497 1499 1501 1503 1504
1486 1486 1486 1486 1486 1486 1486 1486 1486 1487 1488 1488 1489 1488 1486 1485 1483 1482 1481 1481 1479 1475 1472 1472 1471 1470 1468 1469 1470 1470 1469 1469 1470 1470 1469 1471 1472 1472 1472 1473 1475 1477 1476 1470 1466 1467 1470 1471 1469 1464 1458 1456 1457 1457 1457 1457 1457 1457 1459 1460 1461 1462 1464 1465 1466 1468 1469 1470 1472 1473 1474 1476 1478 1479 1481 1482 1484 1486 1488 1490 1492 1494 1496 1498 1500 1502 1503
1486 1486 1486 1486 1486 1485 1485 1485 1485 1486 1487 1488 1489 1488 1485 1482 1480 1478 1477 1476 1474 1472 1471 1470 1469 1468 1467 1467 1468 1468 1468 1469 1469 1468 1469 1470 1471 1472 1473 1475 1476 1475 1471 1467 1467 1471 1472 1471 1466 1459 1454 1454 1455 1454 1454 1454 1454 1455 1456 1458 1459 1460 1461 1463 1464 1466 1467 1469 1470 1472 1473 1475 1477 1478 1480 1482 1483 1485 1487 1489 1491 1493 1495 1497 1499 1501 1502
1485 1485 1486 1485 1485 1485 1485 1485 1484 1485 1486 1487 1486 1485 1484 1482 1478 1476 1475 1474 1473 1472 1471 1470 1469 1468 1467 1466 1466 1467 1467 1467 1468 1468 1469 1470 1471 1472 1474 1475 1473 1470 1468 1468 1469 1470 1468 1464 1458 1454 1452 1452 1452 1451 1451 1452 1452 1452 1454 1455 1457 1458 1460 1461 1463 1464 1466 1468 1469 1470 1472 1474 1476 1477 1479 1481 1482 1484 1486 1487 1489 1492 1494 1496 1497 1499 1501
1484 1485 1485 1485 1484 1484 1485 1484 1483 1483 1484 1483 1482 1481 1480 1478 1476 1475 1474 1473 1472 1471 1470 1469 1468 1467 1466 1466 1466 1466 1465 1466 1467 1468 1469 1470 1471 1471 1472 1471 1469 1468 1470 1470 1470 1468 1465 1459 1454 1451 1451 1451 1450 1450 1450 1450 1450 1451 1452 1453 1455 1456 1457 1459 1461 1462 1464 1466 1468 1469 1471 1473 1474 1476 1477 1480 1482 1483 1484 1486 1488 1490 1492 1494 1496 1498 1500
1484 1484 1484 1485 1485 1483 1483 1483 1482 1481 1480 1478 1477 1477 1476 1475 1475 1474 1473 1473 1472 1471 1470 1468 1466 1466 1466 1466 1467 1466 1465 1465 1467 1468 1468 1470 1472 1471 1469 1468 1469 1471 1473 1473 1470 1467 1462 1456 1451 1450 1450 1449 1448 1448 1449 1448 1448 1449 1450 1451 1453 1454 1456 1457 1459 1461 1463 1464 1466 1467 1469 1471 1472 1474 1476 1478 1480 1482 1483 1485 1486 1488 1490 1492 1494 1496 1498
1483 1483 1484 1485 1485 1483 1482 1482 1480 1478 1476 1475 1475 1475 1475 1474 1473 1472 1471 1471 1471 1471 1469 1468 1466 1465 1465 1466 1467 1467 1465 1465 1467 1469 1469 1470 1471 1470 1469 1470 1471 1472 1472 1472 1470 1464 1457 1452 1450 1449 1448 1447 1447 1447 1447 1447 1447 1448 1448 1449 1451 1453 1455 1456 1457 1458 1460 1462 1464 1465 1467 1469 1470 1473 1475 1476 1479 1480 1482 1484 1486 1487 1489 1490 1492 1494 1496
1483 1483 1484 1484 1484 1481 1480 1478 1476 1475 1474 1474 1474 1474 1473 1473 1472 1470 1469 1469 1469 1468 1468 1466 1465 1465 1466 1466 1468 1468 1466 1465 1467 1468 1468 1468 1470 1472 1472 1473 1472 1469 1467 1466 1463 1458 1454 1451 1449 1447 1447 1447 1447 1447 1447 1447 1447 1447 1447 1449 1450 1452 1454 1457 1458 1459 1460 1461 1462 1463 1465 1466 1468 1471 1473 1475 1477 1479 1480 1482 1485 1486 1488 1490 1492 1494 1496
1482 1482 1482 1482 1481 1479 1476 1475 1475 1474 1473 1473 1473 1473 1472 1471 1470 1469 1469 1468 1468 1467 1467 1465 1465 1465 1466 1467 1468 1468 1466 1465 1466 1467 1467 1468 1470 1471 1472 1473 1472 1468 1463 1460 1457 1454 1452 1450 1448 1447 1447 1447 1447 1447 1447 1447 1447 1447 1449 1450 1450 1451 1454 1458 1461 1461 1461 1460 1461 1462 1463 1465 1467 1469 1471 1473 1475 1477 1479 1481 1483 1485 1487 1489 1491 1493 1495
1481 1481 1481 1481 1480 1478 1475 1474 1474 1474 1473 1472 1472 1471 1471 1470 1469 1469 1468 1468 1467 1467 1466 1465 1465 1465 1467 1469 1469 1469 1466 1463 1463 1466 1468 1468 1467 1466 1467 1468 1466 1463 1459 1457 1454 1452 1451 1450 1449 1448 1448 1447 1447 1447 1447 1447 1447 1448 1449 1450 1450 1451 1453 1456 1459 1460 1460 1460 1460 1461 1462 1464 1465 1467 1469 1471 1473 1475 1478 1480 1482 1484 1486 1488 1491 1493 1495
1480 1480 1479 1479 1478 1477 1475 1475 1475 1474 1473 1471 1471 1470 1470 1469 1469 1468 1468 1467 1467 1466 1466 1465 1464 1466 1469 1470 1469 1466 1463 1460 1461 1464 1465 1463 1461 1461 1463 1463 1459 1456 1455 1454 1452 1451 1450 1450 1450 1450 1449 1448 1448 1448 1448 1448 1448 1448 1449 1449 1450 1450 1451 1453 1456 1457 1458 1459 1459 1460 1462 1463 1465 1466 1468 1471 1473 1475 1477 1479 1481 1483 1485 1488 1490 1492 1494
1478 1478 1477 1476 1476 1476 1475 1474 1474 1473 1471 1470 1469 1469 1469 1468 1468 1468 1467 1467 1466 1465 1465 1464 1464 1466 1468 1467 1464 1462 1460 1460 1460 1461 1460 1458 1456 1457 1458 1457 1454 1453 1453 1452 1451 1450 1450 1450 1450 1450 1449 1449 1448 1448 1448 1448 1448 1449 1449 1450 1450 1450 1451 1452 1454 1455 1456 1457 1458 1460 1461 1463 1464 1466 1467 1469 1471 1473 1475 1477 1479 1481 1484 1487 1490 1492 1494